Location: Alladorf
(49.9620°N, 11.3790°E)
Time: 21:28:09
(UTC+00:00)

FALCON 9 DEB - Pass Details

Date: 29 November 2020
Orbit: 373 x 391 km, 53.0° (Epoch: 24 January)

Event Time Altitude Azimuth Distance (km) Brightness Sun altitude
Exits shadow 04:20:24 37° 133° (SE) 635 4.3 -23.0°
Drops below altitude 10° 04:23:11 10° 77° (ENE) 1,448 6.7 -22.6°
Sets 04:25:20 0° 69° (ENE) 2,311 7.8 -22.3°
